Location: Godzisko
(49.9648°N, 19.4576°E)
Time: 03:22:45
(UTC+00:00)

CZ-4 R/B - Visible Passes

Search period start: 04 August 2021 00:00
Search period end: 14 August 2021 00:00
Orbit: 682 x 752 km, 98.5° (Epoch: 03 August)

Date Brightness Start Highest point End Pass type
(mag) Time Alt. Az. Time Alt. Az. Time Alt. Az.
04 Aug 4.0 00:14:20 10° N 00:19:20 70° WNW 00:21:06 40° SW visible
04 Aug 6.1 01:54:07 10° NNW 01:56:28 13° NW 01:58:49 10° W visible
04 Aug 4.6 23:23:39 10° NNE 23:28:29 45° E 23:29:39 38° SE visible
05 Aug 5.2 01:01:58 10° N 01:06:19 30° WNW 01:08:50 20° WSW visible
05 Aug 5.8 22:33:56 10° NE 22:37:15 17° E 22:38:11 17° ESE visible
06 Aug 3.9 00:10:46 10° NNE 00:15:48 75° WNW 00:17:22 44° SSW visible
06 Aug 6.1 01:50:24 10° NNW 01:53:00 14° NW 01:55:35 10° W visible
06 Aug 4.7 23:20:09 10° NNE 23:24:56 42° E 23:25:55 37° SE visible
07 Aug 5.1 00:58:23 10° N 01:02:48 32° WNW 01:05:06 22° WSW visible
07 Aug 5.9 22:30:34 10° NE 22:33:40 16° E 22:34:28 16° E visible
08 Aug 3.9 00:07:13 10° NNE 00:12:16 80° WNW 00:13:39 49° SSW visible
08 Aug 6.0 01:46:42 10° NNW 01:49:30 15° NW 01:52:18 10° W visible
08 Aug 4.7 23:16:39 10° NNE 23:21:22 39° E 23:22:12 36° ESE visible
09 Aug 5.0 00:54:47 10° N 00:59:19 34° WNW 01:01:22 24° WSW visible
09 Aug 6.0 22:27:13 10° NE 22:30:05 15° E 22:30:44 15° E visible
10 Aug 3.9 00:03:41 10° NNE 00:08:44 86° WNW 00:09:55 54° SSW visible
10 Aug 6.0 01:43:01 10° NNW 01:46:01 16° NW 01:49:01 10° W visible
10 Aug 4.8 23:13:10 10° NNE 23:17:49 36° E 23:18:27 35° ESE visible
11 Aug 4.9 00:51:12 10° N 00:55:47 36° WNW 00:57:38 27° WSW visible
11 Aug 6.1 22:23:55 10° NE 22:26:29 14° E 22:27:00 14° E visible
12 Aug 3.9 00:00:08 10° NNE 00:05:13 89° ESE 00:06:11 59° SSW visible
12 Aug 5.9 01:39:22 10° NNW 01:42:32 17° NW 01:45:22 11° W visible
12 Aug 5.0 23:09:40 10° NNE 23:14:15 34° E 23:14:43 33° ESE visible
13 Aug 4.8 00:47:37 10° N 00:52:17 39° WNW 00:53:54 30° WSW visible
13 Aug 6.2 22:20:39 10° ENE 22:22:52 13° E 22:23:15 13° E visible
